PU2UHW-13 Weather Reports


time (UTC)temp
F
wind
direction
speed
knots
gust
knots
rain 1hr
in
rain 24hr
in
rain mn
in
humidity
%
barometer
mb
20260507225055 69 0.0 0.0 0.00 0.00 0.00 73 1011.0
20260507224755 69 0.0 0.0 0.00 0.00 0.00 73 1010.9
20260507224455 70 0.0 0.0 0.00 0.00 0.00 71 1010.8
20260507224155 69 0.0 0.0 0.00 0.00 0.00 72 1010.9
20260507223855 70 0.0 0.0 0.00 0.00 0.00 71 1010.7
20260507223555 70 0.0 0.0 0.00 0.00 0.00 72 1010.8
20260507223255 70 0.0 0.0 0.00 0.00 0.00 71 1010.7
20260507222955 70 0.0 0.0 0.00 0.00 0.00 72 1010.8
20260507222655 70 0.0 0.0 0.00 0.00 0.00 71 1010.8
20260507222354 69 0.0 0.0 0.00 0.00 0.00 72 1010.9
20260507222055 71 0.0 0.0 0.00 0.00 0.00 69 1010.7
20260507221755 70 0.0 0.0 0.00 0.00 0.00 70 1010.8
20260507221455 70 0.0 0.0 0.00 0.00 0.00 70 1010.8
20260507221155 70 0.0 0.0 0.00 0.00 0.00 70 1010.7
20260507220855 70 0.0 0.0 0.00 0.00 0.00 70 1010.7
20260507220555 71 0.0 0.0 0.00 0.00 0.00 69 1010.6
20260507220255 71 0.0 0.0 0.00 0.00 0.00 70 1010.5
20260507215954 71 0.0 0.0 0.00 0.00 0.00 68 1010.4
20260507215654 71 0.0 0.0 0.00 0.00 0.00 68 1010.4
20260507215355 71 0.0 0.0 0.00 0.00 0.00 68 1010.5
20260507215055 71 0.0 0.0 0.00 0.00 0.00 68 1010.5
20260507214755 71 0.0 0.0 0.00 0.00 0.00 69 1010.5
20260507214455 71 0.0 0.0 0.00 0.00 0.00 69 1010.5
20260507214155 71 0.0 0.0 0.00 0.00 0.00 70 1010.4
20260507213855 71 0.0 0.0 0.00 0.00 0.00 70 1010.3
20260507213555 72 0.0 0.0 0.00 0.00 0.00 69 1010.1
20260507213255 72 0.0 0.0 0.00 0.00 0.00 67 1010.1
20260507212954 72 0.0 0.0 0.00 0.00 0.00 67 1010.0
20260507212656 72 0.0 0.0 0.00 0.00 0.00 68 1010.1
20260507212355 72 0.0 0.0 0.00 0.00 0.00 67 1010.0
20260507212055 71 0.0 0.0 0.00 0.00 0.00 67 1010.1
20260507211755 71 0.0 0.0 0.00 0.00 0.00 68 1010.1
20260507211455 71 0.0 0.0 0.00 0.00 0.00 68 1010.1
20260507211155 72 0.0 0.0 0.00 0.00 0.00 67 1010.0
20260507210855 72 0.0 0.0 0.00 0.00 0.00 67 1010.1
20260507210555 72 0.0 0.0 0.00 0.00 0.00 66 1010.0
20260507210255 73 0.0 0.0 0.00 0.00 0.00 65 1009.8
20260507205955 73 0.0 0.0 0.00 0.00 0.00 66 1010.1
20260507205655 74 0.0 0.0 0.00 0.00 0.00 62 1009.9
20260507205355 75 0.0 0.0 0.00 0.00 0.00 62 1009.7
20260507205055 74 0.0 0.0 0.00 0.00 0.00 63 1009.9
20260507204755 74 0.0 0.0 0.00 0.00 0.00 62 1009.8
20260507204455 74 0.0 0.0 0.00 0.00 0.00 62 1009.8
20260507204156 74 0.0 0.0 0.00 0.00 0.00 62 1009.7
20260507203854 74 0.0 0.0 0.00 0.00 0.00 61 1009.7
20260507203550 74 0.0 0.0 0.00 0.00 0.00 62 1009.6
20260507203254 73 0.0 0.0 0.00 0.00 0.00 63 1009.6
20260507202954 74 0.0 0.0 0.00 0.00 0.00 61 1009.6
20260507202654 74 0.0 0.0 0.00 0.00 0.00 62 1009.6
20260507202355 74 0.0 0.0 0.00 0.00 0.00 61 1009.5
20260507202055 74 0.0 0.0 0.00 0.00 0.00 61 1009.5
20260507201755 75 0.0 0.0 0.00 0.00 0.00 60 1009.3
20260507201455 74 0.0 0.0 0.00 0.00 0.00 60 1009.4
20260507201155 75 0.0 0.0 0.00 0.00 0.00 60 1009.3
20260507200855 75 0.0 0.0 0.00 0.00 0.00 60 1009.3
20260507200554 74 0.0 0.0 0.00 0.00 0.00 60 1009.4
20260507200254 75 0.0 0.0 0.00 0.00 0.00 60 1009.4
20260507195955 75 0.0 0.0 0.00 0.00 0.00 59 1009.1
20260507195655 76 0.0 0.0 0.00 0.00 0.00 58 1009.1
20260507195355 75 0.0 0.0 0.00 0.00 0.00 59 1009.2
20260507195055 75 0.0 0.0 0.00 0.00 0.00 58 1009.0
20260507194754 76 0.0 0.0 0.00 0.00 0.00 58 1008.9
20260507194454 75 0.0 0.0 0.00 0.00 0.00 58 1009.1
20260507194154 75 0.0 0.0 0.00 0.00 0.00 59 1009.2
20260507193854 76 0.0 0.0 0.00 0.00 0.00 58 1009.2
20260507193555 75 0.0 0.0 0.00 0.00 0.00 58 1009.3
20260507193255 76 0.0 0.0 0.00 0.00 0.00 58 1009.1
20260507192955 75 0.0 0.0 0.00 0.00 0.00 58 1009.2
20260507192655 75 0.0 0.0 0.00 0.00 0.00 59 1009.3
20260507192355 76 0.0 0.0 0.00 0.00 0.00 58 1009.2
20260507192054 76 0.0 0.0 0.00 0.00 0.00 58 1009.1
20260507191754 76 0.0 0.0 0.00 0.00 0.00 57 1009.0
20260507191454 75 0.0 0.0 0.00 0.00 0.00 59 1009.2
20260507191155 76 0.0 0.0 0.00 0.00 0.00 58 1009.1
20260507190855 76 0.0 0.0 0.00 0.00 0.00 58 1009.1
20260507190555 76 0.0 0.0 0.00 0.00 0.00 57 1009.1
20260507190255 77 0.0 0.0 0.00 0.00 0.00 56 1009.0
20260507185955 76 0.0 0.0 0.00 0.00 0.00 57 1009.1
20260507185655 76 0.0 0.0 0.00 0.00 0.00 57 1009.1
20260507185355 76 0.0 0.0 0.00 0.00 0.00 56 1009.1
20260507185054 76 0.0 0.0 0.00 0.00 0.00 57 1009.3
20260507184755 76 0.0 0.0 0.00 0.00 0.00 57 1009.2
20260507184455 76 0.0 0.0 0.00 0.00 0.00 58 1009.3
20260507184155 75 0.0 0.0 0.00 0.00 0.00 58 1009.4
20260507183855 76 0.0 0.0 0.00 0.00 0.00 58 1009.2
20260507183555 75 0.0 0.0 0.00 0.00 0.00 58 1009.3
20260507183255 75 0.0 0.0 0.00 0.00 0.00 59 1009.5
20260507182955 76 0.0 0.0 0.00 0.00 0.00 57 1009.4
20260507182655 75 0.0 0.0 0.00 0.00 0.00 58 1009.5
20260507182355 75 0.0 0.0 0.00 0.00 0.00 58 1009.6
20260507182054 75 0.0 0.0 0.00 0.00 0.00 59 1009.7
20260507181754 76 0.0 0.0 0.00 0.00 0.00 58 1009.6
20260507181455 75 0.0 0.0 0.00 0.00 0.00 59 1009.8
20260507181154 75 0.0 0.0 0.00 0.00 0.00 58 1009.8
20260507180854 75 0.0 0.0 0.00 0.00 0.00 59 1009.9
20260507180554 75 0.0 0.0 0.00 0.00 0.00 59 1009.9
20260507180255 75 0.0 0.0 0.00 0.00 0.00 59 1009.9
20260507175955 76 0.0 0.0 0.00 0.00 0.00 57 1009.7
20260507175655 76 0.0 0.0 0.00 0.00 0.00 57 1009.7
20260507175354 75 0.0 0.0 0.00 0.00 0.00 57 1009.8
20260507175054 76 0.0 0.0 0.00 0.00 0.00 57 1009.9
20260507174755 76 0.0 0.0 0.00 0.00 0.00 56 1010.0
20260507174455 75 0.0 0.0 0.00 0.00 0.00 57 1010.0
20260507174155 75 0.0 0.0 0.00 0.00 0.00 58 1010.2
20260507173855 75 0.0 0.0 0.00 0.00 0.00 57 1010.2
20260507173555 76 0.0 0.0 0.00 0.00 0.00 56 1010.0
20260507173255 76 0.0 0.0 0.00 0.00 0.00 56 1009.9
20260507172955 76 0.0 0.0 0.00 0.00 0.00 56 1010.0
20260507172655 76 0.0 0.0 0.00 0.00 0.00 56 1009.9
20260507172354 75 0.0 0.0 0.00 0.00 0.00 56 1010.1
20260507172055 76 0.0 0.0 0.00 0.00 0.00 56 1010.1
20260507171754 76 0.0 0.0 0.00 0.00 0.00 55 1010.2
20260507171455 76 0.0 0.0 0.00 0.00 0.00 55 1010.2
20260507171155 76 0.0 0.0 0.00 0.00 0.00 55 1010.2
20260507170855 76 0.0 0.0 0.00 0.00 0.00 54 1010.2
20260507170555 76 0.0 0.0 0.00 0.00 0.00 54 1010.2
20260507170255 76 0.0 0.0 0.00 0.00 0.00 53 1010.4
20260507165955 76 0.0 0.0 0.00 0.00 0.00 54 1010.4
20260507165655 76 0.0 0.0 0.00 0.00 0.00 54 1010.5
20260507165355 76 0.0 0.0 0.00 0.00 0.00 54 1010.4
20260507165055 76 0.0 0.0 0.00 0.00 0.00 53 1010.3
20260507164755 76 0.0 0.0 0.00 0.00 0.00 54 1010.6
20260507164455 76 0.0 0.0 0.00 0.00 0.00 55 1010.5
20260507164155 76 0.0 0.0 0.00 0.00 0.00 55 1010.6
20260507163855 76 0.0 0.0 0.00 0.00 0.00 53 1010.7
20260507163555 76 0.0 0.0 0.00 0.00 0.00 56 1010.8
20260507163255 76 0.0 0.0 0.00 0.00 0.00 56 1010.8
20260507162955 76 0.0 0.0 0.00 0.00 0.00 57 1010.9
20260507162655 76 0.0 0.0 0.00 0.00 0.00 57 1011.0
20260507162355 75 0.0 0.0 0.00 0.00 0.00 57 1011.1
20260507162055 75 0.0 0.0 0.00 0.00 0.00 59 1011.1
20260507161755 75 0.0 0.0 0.00 0.00 0.00 57 1011.1
20260507161455 75 0.0 0.0 0.00 0.00 0.00 57 1011.0
20260507161155 75 0.0 0.0 0.00 0.00 0.00 59 1011.2
20260507160855 76 0.0 0.0 0.00 0.00 0.00 59 1011.0
20260507160554 76 0.0 0.0 0.00 0.00 0.00 60 1011.2
20260507160255 75 0.0 0.0 0.00 0.00 0.00 60 1011.3
20260507155955 76 0.0 0.0 0.00 0.00 0.00 58 1011.1
20260507155656 76 0.0 0.0 0.00 0.00 0.00 60 1011.3
20260507155355 76 0.0 0.0 0.00 0.00 0.00 60 1011.4
20260507155055 75 0.0 0.0 0.00 0.00 0.00 60 1011.3
20260507154754 75 0.0 0.0 0.00 0.00 0.00 63 1011.5
20260507154455 76 0.0 0.0 0.00 0.00 0.00 61 1011.4
20260507154154 76 0.0 0.0 0.00 0.00 0.00 61 1011.6
20260507153855 75 0.0 0.0 0.00 0.00 0.00 60 1011.8
20260507153555 75 0.0 0.0 0.00 0.00 0.00 60 1011.8
20260507153255 76 0.0 0.0 0.00 0.00 0.00 60 1012.0
20260507152954 75 0.0 0.0 0.00 0.00 0.00 61 1012.2
20260507152655 75 0.0 0.0 0.00 0.00 0.00 61 1012.2
20260507152355 75 0.0 0.0 0.00 0.00 0.00 61 1012.4
20260507152055 75 0.0 0.0 0.00 0.00 0.00 62 1012.6
20260507151754 75 0.0 0.0 0.00 0.00 0.00 64 1012.7
20260507151455 74 0.0 0.0 0.00 0.00 0.00 64 1012.8
20260507151155 75 0.0 0.0 0.00 0.00 0.00 64 1012.9
20260507150855 75 0.0 0.0 0.00 0.00 0.00 64 1012.8
20260507150554 73 0.0 0.0 0.00 0.00 0.00 66 1013.3
20260507150254 73 0.0 0.0 0.00 0.00 0.00 67 1013.4
20260507145955 74 0.0 0.0 0.00 0.00 0.00 66 1013.4
20260507145655 73 0.0 0.0 0.00 0.00 0.00 65 1013.4
20260507145355 73 0.0 0.0 0.00 0.00 0.00 66 1013.8
20260507145055 74 0.0 0.0 0.00 0.00 0.00 65 1013.7
20260507144754 74 0.0 0.0 0.00 0.00 0.00 65 1013.7
20260507144454 73 0.0 0.0 0.00 0.00 0.00 65 1013.9
20260507144154 74 0.0 0.0 0.00 0.00 0.00 65 1014.0
20260507143854 74 0.0 0.0 0.00 0.00 0.00 65 1013.8
20260507143554 73 0.0 0.0 0.00 0.00 0.00 66 1014.1
20260507143255 73 0.0 0.0 0.00 0.00 0.00 65 1014.4
20260507142955 73 0.0 0.0 0.00 0.00 0.00 66 1014.4
20260507142655 73 0.0 0.0 0.00 0.00 0.00 67 1014.6
20260507142355 73 0.0 0.0 0.00 0.00 0.00 67 1014.4
20260507142055 73 0.0 0.0 0.00 0.00 0.00 68 1014.6
20260507141754 72 0.0 0.0 0.00 0.00 0.00 68 1014.7
20260507141455 73 0.0 0.0 0.00 0.00 0.00 68 1014.7
20260507141154 72 0.0 0.0 0.00 0.00 0.00 68 1014.8
20260507140854 72 0.0 0.0 0.00 0.00 0.00 69 1014.9
20260507140554 72 0.0 0.0 0.00 0.00 0.00 69 1014.9
20260507140254 72 0.0 0.0 0.00 0.00 0.00 69 1015.0
20260507135954 72 0.0 0.0 0.00 0.00 0.00 68 1014.8
20260507135654 72 0.0 0.0 0.00 0.00 0.00 69 1015.0
20260507135355 73 0.0 0.0 0.00 0.00 0.00 70 1014.9
20260507135054 72 0.0 0.0 0.00 0.00 0.00 68 1015.1
20260507134754 72 0.0 0.0 0.00 0.00 0.00 68 1015.1
20260507134455 72 0.0 0.0 0.00 0.00 0.00 69 1015.2
20260507134155 72 0.0 0.0 0.00 0.00 0.00 68 1015.2
20260507133854 72 0.0 0.0 0.00 0.00 0.00 70 1015.3
20260507133555 72 0.0 0.0 0.00 0.00 0.00 68 1015.4
20260507133254 72 0.0 0.0 0.00 0.00 0.00 68 1015.1
20260507132954 72 0.0 0.0 0.00 0.00 0.00 70 1015.3
20260507132655 72 0.0 0.0 0.00 0.00 0.00 70 1015.4
20260507132355 71 0.0 0.0 0.00 0.00 0.00 70 1015.5
20260507132055 71 0.0 0.0 0.00 0.00 0.00 71 1015.6
20260507131755 71 0.0 0.0 0.00 0.00 0.00 71 1015.5
20260507131454 71 0.0 0.0 0.00 0.00 0.00 71 1015.6
20260507131154 71 0.0 0.0 0.00 0.00 0.00 71 1015.6
20260507130854 71 0.0 0.0 0.00 0.00 0.00 71 1015.7
20260507130555 71 0.0 0.0 0.00 0.00 0.00 71 1015.7
20260507130255 72 0.0 0.0 0.00 0.00 0.00 71 1015.7
20260507125955 71 0.0 0.0 0.00 0.00 0.00 73 1015.9
20260507125655 71 0.0 0.0 0.00 0.00 0.00 72 1015.9
20260507125354 71 0.0 0.0 0.00 0.00 0.00 74 1016.0
20260507125055 70 0.0 0.0 0.00 0.00 0.00 74 1016.2
20260507124755 71 0.0 0.0 0.00 0.00 0.00 75 1016.0
20260507124455 71 0.0 0.0 0.00 0.00 0.00 74 1015.9
20260507124155 71 0.0 0.0 0.00 0.00 0.00 75 1016.0
20260507123854 71 0.0 0.0 0.00 0.00 0.00 74 1016.0
20260507123554 71 0.0 0.0 0.00 0.00 0.00 75 1016.1
20260507123255 70 0.0 0.0 0.00 0.00 0.00 75 1016.2
20260507122955 70 0.0 0.0 0.00 0.00 0.00 76 1016.3
20260507122654 69 0.0 0.0 0.00 0.00 0.00 79 1016.4
20260507122354 69 0.0 0.0 0.00 0.00 0.00 77 1016.5
20260507122054 70 0.0 0.0 0.00 0.00 0.00 76 1016.4
20260507121754 69 0.0 0.0 0.00 0.00 0.00 77 1016.5
20260507121454 69 0.0 0.0 0.00 0.00 0.00 78 1016.5
20260507121154 69 0.0 0.0 0.00 0.00 0.00 80 1016.5
20260507120855 68 0.0 0.0 0.00 0.00 0.00 79 1016.5
20260507120555 67 0.0 0.0 0.00 0.00 0.00 80 1016.8
20260507120254 68 0.0 0.0 0.00 0.00 0.00 78 1016.8
20260507115955 68 0.0 0.0 0.00 0.00 0.00 78 1016.8
20260507115655 68 0.0 0.0 0.00 0.00 0.00 79 1016.7
20260507115355 68 0.0 0.0 0.00 0.00 0.00 80 1016.8
20260507115054 67 0.0 0.0 0.00 0.00 0.00 81 1016.9
20260507114754 67 0.0 0.0 0.00 0.00 0.00 82 1016.8
20260507114454 67 0.0 0.0 0.00 0.00 0.00 81 1017.1
20260507114154 67 0.0 0.0 0.00 0.00 0.00 80 1017.0
20260507113854 66 0.0 0.0 0.00 0.00 0.00 81 1017.1
20260507113554 67 0.0 0.0 0.00 0.00 0.00 79 1017.0
20260507113255 66 0.0 0.0 0.00 0.00 0.00 80 1017.2
20260507112955 66 0.0 0.0 0.00 0.00 0.00 78 1017.1
20260507112655 67 0.0 0.0 0.00 0.00 0.00 78 1017.0
20260507112355 66 0.0 0.0 0.00 0.00 0.00 79 1017.1
20260507112054 65 0.0 0.0 0.00 0.00 0.00 82 1017.4
20260507111754 65 0.0 0.0 0.00 0.00 0.00 80 1017.3
20260507111454 65 0.0 0.0 0.00 0.00 0.00 80 1017.3
20260507111155 65 0.0 0.0 0.00 0.00 0.00 82 1017.4
20260507110854 65 0.0 0.0 0.00 0.00 0.00 80 1017.2
20260507110554 65 0.0 0.0 0.00 0.00 0.00 78 1017.2
20260507110254 64 0.0 0.0 0.00 0.00 0.00 80 1017.5
20260507105954 64 0.0 0.0 0.00 0.00 0.00 81 1017.6
20260507105654 64 0.0 0.0 0.00 0.00 0.00 79 1017.5
20260507105355 64 0.0 0.0 0.00 0.00 0.00 79 1017.5
20260507105054 64 0.0 0.0 0.00 0.00 0.00 79 1017.6
20260507104754 63 0.0 0.0 0.00 0.00 0.00 80 1017.8
20260507104454 63 0.0 0.0 0.00 0.00 0.00 79 1017.8
20260507104154 63 0.0 0.0 0.00 0.00 0.00 80 1017.9
20260507103854 63 0.0 0.0 0.00 0.00 0.00 79 1017.8
20260507103554 63 0.0 0.0 0.00 0.00 0.00 79 1017.9
20260507103254 63 0.0 0.0 0.00 0.00 0.00 79 1017.9
20260507102954 62 0.0 0.0 0.00 0.00 0.00 81 1018.1
20260507102654 62 0.0 0.0 0.00 0.00 0.00 80 1018.1
20260507102354 62 0.0 0.0 0.00 0.00 0.00 82 1018.2
20260507102054 63 0.0 0.0 0.00 0.00 0.00 78 1017.9
20260507101754 62 0.0 0.0 0.00 0.00 0.00 81 1018.2
20260507101454 62 0.0 0.0 0.00 0.00 0.00 80 1018.2
20260507101154 62 0.0 0.0 0.00 0.00 0.00 80 1018.2
20260507100854 61 0.0 0.0 0.00 0.00 0.00 80 1018.2
20260507100554 62 0.0 0.0 0.00 0.00 0.00 80 1018.2
20260507100254 62 0.0 0.0 0.00 0.00 0.00 79 1018.2
20260507095954 61 0.0 0.0 0.00 0.00 0.00 81 1018.2
20260507095654 61 0.0 0.0 0.00 0.00 0.00 81 1018.4
20260507095354 62 0.0 0.0 0.00 0.00 0.00 80 1018.2
20260507095055 62 0.0 0.0 0.00 0.00 0.00 80 1018.1
20260507094755 62 0.0 0.0 0.00 0.00 0.00 80 1018.1
20260507094454 61 0.0 0.0 0.00 0.00 0.00 81 1018.3
20260507094154 61 0.0 0.0 0.00 0.00 0.00 81 1018.2
20260507093855 61 0.0 0.0 0.00 0.00 0.00 81 1018.1
20260507093555 62 0.0 0.0 0.00 0.00 0.00 80 1018.2
20260507093255 62 0.0 0.0 0.00 0.00 0.00 79 1018.2
20260507092955 61 0.0 0.0 0.00 0.00 0.00 81 1018.4
20260507092655 61 0.0 0.0 0.00 0.00 0.00 81 1018.4
20260507092355 61 0.0 0.0 0.00 0.00 0.00 81 1018.3
20260507092054 61 0.0 0.0 0.00 0.00 0.00 81 1018.3
20260507091754 61 0.0 0.0 0.00 0.00 0.00 81 1018.3
20260507091454 61 0.0 0.0 0.00 0.00 0.00 81 1018.4
20260507091154 62 0.0 0.0 0.00 0.00 0.00 80 1018.2
20260507090854 62 0.0 0.0 0.00 0.00 0.00 80 1018.2
20260507090554 61 0.0 0.0 0.00 0.00 0.00 82 1018.4
20260507090255 61 0.0 0.0 0.00 0.00 0.00 82 1018.4
20260507085955 61 0.0 0.0 0.00 0.00 0.00 81 1018.3
20260507085654 61 0.0 0.0 0.00 0.00 0.00 81 1018.3
20260507085354 61 0.0 0.0 0.00 0.00 0.00 81 1018.3
20260507085054 61 0.0 0.0 0.00 0.00 0.00 82 1018.3
20260507084754 61 0.0 0.0 0.00 0.00 0.00 83 1018.4
20260507084455 60 0.0 0.0 0.00 0.00 0.00 84 1018.6
20260507084155 61 0.0 0.0 0.00 0.00 0.00 82 1018.3
20260507083854 61 0.0 0.0 0.00 0.00 0.00 82 1018.2
20260507083554 61 0.0 0.0 0.00 0.00 0.00 81 1018.3
20260507083255 61 0.0 0.0 0.00 0.00 0.00 83 1018.3
20260507082955 60 0.0 0.0 0.00 0.00 0.00 85 1018.6
20260507082654 60 0.0 0.0 0.00 0.00 0.00 85 1018.6
20260507082354 60 0.0 0.0 0.00 0.00 0.00 84 1018.5
20260507082054 61 0.0 0.0 0.00 0.00 0.00 84 1018.5
20260507081754 61 0.0 0.0 0.00 0.00 0.00 84 1018.5
20260507081454 60 0.0 0.0 0.00 0.00 0.00 84 1018.5
20260507081154 61 0.0 0.0 0.00 0.00 0.00 81 1018.1
20260507080854 61 0.0 0.0 0.00 0.00 0.00 83 1018.3
20260507080554 61 0.0 0.0 0.00 0.00 0.00 84 1018.4
20260507080254 61 0.0 0.0 0.00 0.00 0.00 81 1018.3
20260507075954 62 0.0 0.0 0.00 0.00 0.00 81 1018.2
20260507075654 61 0.0 0.0 0.00 0.00 0.00 83 1018.3
20260507075354 61 0.0 0.0 0.00 0.00 0.00 83 1018.3
20260507075055 62 0.0 0.0 0.00 0.00 0.00 81 1018.1
20260507074755 62 0.0 0.0 0.00 0.00 0.00 80 1018.3
20260507074455 63 0.0 0.0 0.00 0.00 0.00 78 1018.0
20260507074155 63 0.0 0.0 0.00 0.00 0.00 78 1018.2
20260507073855 62 0.0 0.0 0.00 0.00 0.00 80 1018.4
20260507073555 62 0.0 0.0 0.00 0.00 0.00 79 1018.2
20260507073254 62 0.0 0.0 0.00 0.00 0.00 79 1018.3
20260507072954 62 0.0 0.0 0.00 0.00 0.00 80 1018.4
20260507072654 62 0.0 0.0 0.00 0.00 0.00 80 1018.5
20260507072354 62 0.0 0.0 0.00 0.00 0.00 81 1018.5
20260507072054 62 0.0 0.0 0.00 0.00 0.00 80 1018.4
20260507071754 62 0.0 0.0 0.00 0.00 0.00 79 1018.2
20260507071454 62 0.0 0.0 0.00 0.00 0.00 81 1018.4
20260507071154 62 0.0 0.0 0.00 0.00 0.00 81 1018.5
20260507070855 61 0.0 0.0 0.00 0.00 0.00 82 1018.7
20260507070555 62 0.0 0.0 0.00 0.00 0.00 81 1018.5
20260507070254 61 0.0 0.0 0.00 0.00 0.00 82 1018.8
20260507065954 63 0.0 0.0 0.00 0.00 0.00 78 1018.4
20260507065654 62 0.0 0.0 0.00 0.00 0.00 80 1018.6
20260507065355 62 0.0 0.0 0.00 0.00 0.00 80 1018.8
20260507065054 62 0.0 0.0 0.00 0.00 0.00 81 1018.8
20260507064754 62 0.0 0.0 0.00 0.00 0.00 82 1018.9
20260507064454 62 0.0 0.0 0.00 0.00 0.00 80 1018.9
20260507064154 62 0.0 0.0 0.00 0.00 0.00 79 1018.8
20260507063855 62 0.0 0.0 0.00 0.00 0.00 80 1018.8
20260507063555 62 0.0 0.0 0.00 0.00 0.00 80 1018.9
20260507063255 62 0.0 0.0 0.00 0.00 0.00 80 1018.8
20260507062955 62 0.0 0.0 0.00 0.00 0.00 82 1019.0
20260507062654 62 0.0 0.0 0.00 0.00 0.00 82 1019.1
20260507062354 62 0.0 0.0 0.00 0.00 0.00 81 1019.1
20260507062054 62 0.0 0.0 0.00 0.00 0.00 81 1019.1
20260507061754 62 0.0 0.0 0.00 0.00 0.00 81 1019.3
20260507061455 62 0.0 0.0 0.00 0.00 0.00 81 1019.4
20260507061155 62 0.0 0.0 0.00 0.00 0.00 82 1019.3
20260507060854 62 0.0 0.0 0.00 0.00 0.00 82 1019.3
20260507060554 62 0.0 0.0 0.00 0.00 0.00 83 1019.4
20260507060254 62 0.0 0.0 0.00 0.00 0.00 83 1019.3
20260507055954 62 0.0 0.0 0.00 0.00 0.00 85 1019.3
20260507055654 62 0.0 0.0 0.00 0.00 0.00 85 1019.3
20260507055354 62 0.0 0.0 0.00 0.00 0.00 84 1019.4
20260507055055 62 0.0 0.0 0.00 0.00 0.00 85 1019.5
20260507054755 63 0.0 0.0 0.00 0.00 0.00 83 1019.3
20260507054454 63 0.0 0.0 0.00 0.00 0.00 83 1019.5
20260507054154 62 0.0 0.0 0.00 0.00 0.00 85 1019.7
20260507053855 62 0.0 0.0 0.00 0.00 0.00 83 1019.6
20260507053555 63 0.0 0.0 0.00 0.00 0.00 82 1019.6
20260507053254 63 0.0 0.0 0.00 0.00 0.00 80 1019.6
20260507052954 64 0.0 0.0 0.00 0.00 0.00 79 1019.4
20260507052655 64 0.0 0.0 0.00 0.00 0.00 78 1019.4
20260507052355 64 0.0 0.0 0.00 0.00 0.00 78 1019.4
20260507052055 64 0.0 0.0 0.00 0.00 0.00 78 1019.5
20260507051755 64 0.0 0.0 0.00 0.00 0.00 79 1019.6
20260507051455 64 0.0 0.0 0.00 0.00 0.00 78 1019.6
20260507051155 64 0.0 0.0 0.00 0.00 0.00 78 1019.6
20260507050854 64 0.0 0.0 0.00 0.00 0.00 78 1019.7
20260507050554 63 0.0 0.0 0.00 0.00 0.00 79 1019.9
20260507050255 63 0.0 0.0 0.00 0.00 0.00 79 1019.9
20260507045955 63 0.0 0.0 0.00 0.00 0.00 78 1019.9
20260507045654 64 0.0 0.0 0.00 0.00 0.00 78 1020.0
20260507045354 63 0.0 0.0 0.00 0.00 0.00 80 1020.2
20260507045054 63 0.0 0.0 0.00 0.00 0.00 79 1020.1
20260507044754 63 0.0 0.0 0.00 0.00 0.00 80 1020.2
20260507044454 64 0.0 0.0 0.00 0.00 0.00 77 1020.0
20260507044154 63 0.0 0.0 0.00 0.00 0.00 79 1020.2
20260507043854 62 0.0 0.0 0.00 0.00 0.00 81 1020.5
20260507043554 63 0.0 0.0 0.00 0.00 0.00 80 1020.4
20260507043254 62 0.0 0.0 0.00 0.00 0.00 82 1020.5
20260507042954 62 0.0 0.0 0.00 0.00 0.00 81 1020.6
20260507042654 63 0.0 0.0 0.00 0.00 0.00 79 1020.5
20260507042354 63 0.0 0.0 0.00 0.00 0.00 79 1020.5
20260507042054 63 0.0 0.0 0.00 0.00 0.00 80 1020.6
20260507041754 62 0.0 0.0 0.00 0.00 0.00 81 1020.8
20260507041455 64 0.0 0.0 0.00 0.00 0.00 78 1020.5
20260507041154 63 0.0 0.0 0.00 0.00 0.00 78 1020.5
20260507040854 64 0.0 0.0 0.00 0.00 0.00 77 1020.3
20260507040555 64 0.0 0.0 0.00 0.00 0.00 78 1020.5
20260507040255 64 0.0 0.0 0.00 0.00 0.00 77 1020.5
20260507035955 65 0.0 0.0 0.00 0.00 0.00 75 1020.4
20260507035655 64 0.0 0.0 0.00 0.00 0.00 76 1020.4
20260507035354 64 0.0 0.0 0.00 0.00 0.00 76 1020.5
20260507035054 64 0.0 0.0 0.00 0.00 0.00 76 1020.4
20260507034754 65 0.0 0.0 0.00 0.00 0.00 76 1020.4
20260507034454 65 0.0 0.0 0.00 0.00 0.00 75 1020.3
20260507034154 65 0.0 0.0 0.00 0.00 0.00 75 1020.5
20260507033855 65 0.0 0.0 0.00 0.00 0.00 74 1020.4
20260507033554 65 0.0 0.0 0.00 0.00 0.00 74 1020.4
20260507033254 65 0.0 0.0 0.00 0.00 0.00 75 1020.3
20260507032954 65 0.0 0.0 0.00 0.00 0.00 75 1020.4
20260507032654 66 0.0 0.0 0.00 0.00 0.00 75 1020.4
20260507032354 65 0.0 0.0 0.00 0.00 0.00 75 1020.4
20260507032055 65 0.0 0.0 0.00 0.00 0.00 76 1020.6
20260507031754 65 0.0 0.0 0.00 0.00 0.00 76 1020.6
20260507031454 65 0.0 0.0 0.00 0.00 0.00 75 1020.5
20260507031154 66 0.0 0.0 0.00 0.00 0.00 76 1020.4
20260507030854 65 0.0 0.0 0.00 0.00 0.00 76 1020.7
20260507030555 65 0.0 0.0 0.00 0.00 0.00 78 1020.7
20260507030254 64 0.0 0.0 0.00 0.00 0.00 80 1021.0
20260507025955 64 0.0 0.0 0.00 0.00 0.00 79 1021.0
20260507025655 64 0.0 0.0 0.00 0.00 0.00 80 1021.1
20260507025355 64 0.0 0.0 0.00 0.00 0.00 79 1021.0
20260507025054 64 0.0 0.0 0.00 0.00 0.00 79 1021.1
20260507024754 64 0.0 0.0 0.00 0.00 0.00 79 1021.1
20260507024455 64 0.0 0.0 0.00 0.00 0.00 79 1021.2
20260507024155 64 0.0 0.0 0.00 0.00 0.00 80 1021.2
20260507023854 64 0.0 0.0 0.00 0.00 0.00 79 1021.2
20260507023554 65 0.0 0.0 0.00 0.00 0.00 78 1021.1
20260507023254 65 0.0 0.0 0.00 0.00 0.00 76 1021.0
20260507022955 66 0.0 0.0 0.00 0.00 0.00 76 1020.9
20260507022655 66 0.0 0.0 0.00 0.00 0.00 76 1020.9
20260507022355 66 0.0 0.0 0.00 0.00 0.00 76 1021.0
20260507022054 66 0.0 0.0 0.00 0.00 0.00 76 1021.0
20260507021754 66 0.0 0.0 0.00 0.00 0.00 75 1020.9
20260507021456 66 0.0 0.0 0.00 0.00 0.00 76 1021.1
20260507021154 66 0.0 0.0 0.00 0.00 0.00 75 1021.0
20260507020854 67 0.0 0.0 0.00 0.00 0.00 74 1020.7
20260507020554 66 0.0 0.0 0.00 0.00 0.00 77 1020.9
20260507020255 66 0.0 0.0 0.00 0.00 0.00 77 1021.0
20260507015955 65 0.0 0.0 0.00 0.00 0.00 78 1021.1
20260507015655 65 0.0 0.0 0.00 0.00 0.00 78 1021.1
20260507015355 65 0.0 0.0 0.00 0.00 0.00 78 1021.2
20260507015054 65 0.0 0.0 0.00 0.00 0.00 80 1021.3
20260507014754 66 0.0 0.0 0.00 0.00 0.00 78 1021.2
20260507014454 65 0.0 0.0 0.00 0.00 0.00 79 1021.3
20260507014154 66 0.0 0.0 0.00 0.00 0.00 77 1021.1
20260507013854 66 0.0 0.0 0.00 0.00 0.00 76 1021.0
20260507013554 66 0.0 0.0 0.00 0.00 0.00 77 1021.0
20260507013254 66 0.0 0.0 0.00 0.00 0.00 77 1021.1
20260507012954 66 0.0 0.0 0.00 0.00 0.00 77 1021.2
20260507012654 66 0.0 0.0 0.00 0.00 0.00 78 1021.3
20260507012354 66 0.0 0.0 0.00 0.00 0.00 77 1021.2
20260507012055 67 0.0 0.0 0.00 0.00 0.00 76 1021.1
20260507011755 67 0.0 0.0 0.00 0.00 0.00 76 1021.0
20260507011455 67 0.0 0.0 0.00 0.00 0.00 77 1020.9
20260507011155 67 0.0 0.0 0.00 0.00 0.00 77 1021.0
20260507010855 66 0.0 0.0 0.00 0.00 0.00 78 1021.3
20260507010555 66 0.0 0.0 0.00 0.00 0.00 77 1021.2
20260507010255 66 0.0 0.0 0.00 0.00 0.00 78 1021.3
20260507005955 65 0.0 0.0 0.00 0.00 0.00 80 1021.4
20260507005654 65 0.0 0.0 0.00 0.00 0.00 80 1021.3
20260507005355 65 0.0 0.0 0.00 0.00 0.00 79 1021.3
20260507005055 65 0.0 0.0 0.00 0.00 0.00 80 1021.3
20260507004755 66 0.0 0.0 0.00 0.00 0.00 79 1021.2
20260507004455 66 0.0 0.0 0.00 0.00 0.00 79 1021.2
20260507004156 66 0.0 0.0 0.00 0.00 0.00 79 1021.2
20260507003855 66 0.0 0.0 0.00 0.00 0.00 79 1021.2
20260507003555 67 0.0 0.0 0.00 0.00 0.00 77 1021.0
20260507003254 67 0.0 0.0 0.00 0.00 0.00 76 1021.0
20260507002954 66 0.0 0.0 0.00 0.00 0.00 78 1021.3
20260507002654 67 0.0 0.0 0.00 0.00 0.00 77 1021.2
20260507002355 67 0.0 0.0 0.00 0.00 0.00 77 1021.0
20260507002054 67 0.0 0.0 0.00 0.00 0.00 77 1021.0
20260507001754 68 0.0 0.0 0.00 0.00 0.00 75 1020.9
20260507001457 67 0.0 0.0 0.00 0.00 0.00 77 1021.1
20260507001154 67 0.0 0.0 0.00 0.00 0.00 76 1020.9
20260507000854 68 0.0 0.0 0.00 0.00 0.00 75 1020.9
20260507000555 67 0.0 0.0 0.00 0.00 0.00 76 1021.0
20260507000254 67 0.0 0.0 0.00 0.00 0.00 77 1021.3
20260506235954 67 0.0 0.0 0.00 0.00 0.00 77 1021.1
20260506235654 68 0.0 0.0 0.00 0.00 0.00 77 1021.1
20260506235354 67 0.0 0.0 0.00 0.00 0.00 78 1021.2
20260506235054 67 0.0 0.0 0.00 0.00 0.00 78 1021.3
20260506234755 67 0.0 0.0 0.00 0.00 0.00 79 1021.3
20260506234454 67 0.0 0.0 0.00 0.00 0.00 79 1021.4
20260506234154 66 0.0 0.0 0.00 0.00 0.00 80 1021.5
20260506233854 66 0.0 0.0 0.00 0.00 0.00 79 1021.5
20260506233554 67 0.0 0.0 0.00 0.00 0.00 77 1021.3
20260506233254 67 0.0 0.0 0.00 0.00 0.00 78 1021.2
20260506232954 68 0.0 0.0 0.00 0.00 0.00 75 1021.0
20260506232654 68 0.0 0.0 0.00 0.00 0.00 76 1021.1
20260506232354 68 0.0 0.0 0.00 0.00 0.00 77 1021.3
20260506232054 67 0.0 0.0 0.00 0.00 0.00 79 1021.4
20260506231754 67 0.0 0.0 0.00 0.00 0.00 78 1021.4
20260506231454 67 0.0 0.0 0.00 0.00 0.00 78 1021.3
20260506231154 67 0.0 0.0 0.00 0.00 0.00 79 1021.3
20260506230854 67 0.0 0.0 0.00 0.00 0.00 79 1021.4
20260506230554 67 0.0 0.0 0.00 0.00 0.00 80 1021.2
20260506230254 67 0.0 0.0 0.00 0.00 0.00 79 1021.2
20260506225956 67 0.0 0.0 0.00 0.00 0.00 79 1021.2
20260506225654 67 0.0 0.0 0.00 0.00 0.00 80 1021.1
20260506225354 67 0.0 0.0 0.00 0.00 0.00 79 1021.0